Terminal Aerodrome Forecast
Issued by NWS Corpus Christi, TX

Home | Current Version | Previous Version | Text Only | Print | Product List | Glossary On
Versions: 1 2 3 4 5 6 7 8 9 10 11 12 13 14 15
000
FTUS44 KCRP 012329
TAFVCT
TAF
KVCT 012329Z 0200/0224 VRB03KT P6SM SCT250
      TEMPO 0210/0213 5SM BR
     FM021500 VRB05KT P6SM SKC=

USA.gov is the U.S. government's official web portal to all federal, state and local government web resources and services.